Buffalo, SD

5:32 PM MDT on June 26, 2017 (GMT -0600)
Buffalo

Weather History for K2WX - December, 2012

Change the Weather History Date:

Sunday, December 30, 2012

  Actual Average Record
Temperature  
Mean Temperature 17 °F 20 °F  
Max Temperature 26 °F 30 °F 47 °F (2011)
Min Temperature 8 °F 10 °F -8 °F (2014)
Degree Days  
Heating Degree Days 48 45  
Month to date heating degree days 1257 1318  
Since 1 July heating degree days 2957 3216  
Cooling Degree Days 0 0  
Month to date cooling degree days 0 0  
Year to date cooling degree days 853 513  
Moisture  
Dew Point 14 °F    
Average Humidity 77    
Maximum Humidity 92    
Minimum Humidity 62    
Precipitation  
Precipitation 0.00 in 0.02 in 0.03 in (2013)
Month to date precipitation 0.29 0.28  
Year to date precipitation 8.57 14.51  
Sea Level Pressure  
Sea Level Pressure 30.04 in    
Wind  
Wind Speed 12 mph (WNW)    
Max Wind Speed 31 mph    
Max Gust Speed 35 mph    
T = Trace of Precipitation, MM = Missing Value Source: NWS Daily Summary

Daily Weather History Graph

Daily Weather History Graph

Search for Another Location

Airport or City:

Trip Planner

Search our weather history database for the weather conditions in past years. The results will help you decide how hot, cold, wet, or windy it might be!

Date:

Astronomy

Dec. 30, 2012 Rise Set
Actual Time 7:34 AM MST 4:19 PM MST
Civil Twilight 7:00 AM MST 4:53 PM MST
Nautical Twilight 6:22 AM MST 5:31 PM MST
Astronomical Twilight 5:46 AM MST 6:07 PM MST
Moon 7:01 PM MST (12/30) 8:37 AM MST (12/30)
Length of Visible Light 9h 53m
Length of Day
8h 45m
Waning Gibbous, 95% of the Moon is Illuminated
Dec 30
Waning Gibbous
Jan 4
Last Quarter
Jan 11
New
Jan 18
First Quarter
Jan 26
Full

Hourly Weather History & Observations

Time (MST) Temp. Windchill Dew Point Humidity Pressure Visibility Wind Dir Wind Speed Gust Speed Precip Events Conditions
12:56 AM 19.9 °F 13.4 °F 10.0 °F 65% 29.94 in - NW 4.6 mph - N/A   Unknown
1:56 AM 19.9 °F 11.1 °F 8.1 °F 60% 29.94 in - West 6.9 mph - N/A   Unknown
2:56 AM 14.0 °F 1.2 °F 6.1 °F 71% 29.96 in - WNW 10.4 mph - N/A   Unknown
3:56 AM 14.0 °F 2.0 °F 6.1 °F 71% 29.96 in - WNW 9.2 mph - N/A   Unknown
4:56 AM 15.1 °F 6.4 °F 8.1 °F 74% 29.96 in - West 5.8 mph - N/A   Unknown
5:56 AM 17.1 °F 6.6 °F 8.1 °F 68% 29.97 in - WNW 8.1 mph - N/A   Unknown
6:56 AM 12.9 °F 2.6 °F 7.0 °F 77% 29.99 in - West 6.9 mph - N/A   Unknown
7:56 AM 16.0 °F 1.7 °F 8.1 °F 71% 30.01 in - WNW 13.8 mph - N/A   Unknown
8:56 AM 18.0 °F 2.6 °F 10.0 °F 71% 30.01 in - WNW 17.3 mph - N/A   Unknown
9:56 AM 23.0 °F 6.3 °F 16.0 °F 74% 30.01 in - NW 26.5 mph - N/A   Unknown
10:56 AM 24.1 °F 8.3 °F 18.0 °F 77% 30.01 in - WNW 24.2 mph - N/A   Unknown
11:56 AM 25.0 °F 8.9 °F 19.0 °F 78% 30.01 in - NW 26.5 mph - N/A   Unknown
12:56 PM 25.0 °F 9.2 °F 19.0 °F 78% 30.01 in - NW 25.3 mph - N/A   Unknown
1:56 PM 25.0 °F 10.2 °F 19.9 °F 81% 30.03 in - NW 21.9 mph - N/A   Unknown
2:56 PM 24.1 °F 10.1 °F 19.9 °F 84% 30.06 in - NW 18.4 mph - N/A   Unknown
3:56 PM 21.9 °F 9.8 °F 18.0 °F 85% 30.08 in - WNW 12.7 mph - N/A   Unknown
4:56 PM 16.0 °F 4.4 °F 14.0 °F 92% 30.12 in - West 9.2 mph - N/A   Unknown
5:56 PM 15.1 °F 1.8 °F 14.0 °F 95% 30.13 in - West 11.5 mph - N/A   Unknown
6:56 PM 19.0 °F 12.3 °F 17.1 °F 92% 30.14 in - WNW 4.6 mph - N/A   Unknown
7:56 PM 19.9 °F 11.1 °F 18.0 °F 92% 30.13 in - West 6.9 mph - N/A   Unknown
8:56 PM 21.9 °F 13.4 °F 19.0 °F 89% 30.12 in - WNW 6.9 mph - N/A   Unknown
9:56 PM 21.9 °F 14.5 °F 19.0 °F 89% 30.11 in - WSW 5.8 mph - N/A   Unknown
10:56 PM 21.0 °F 11.4 °F 19.0 °F 92% 30.11 in - WSW 8.1 mph - N/A   Unknown
11:56 PM 19.9 °F 13.4 °F 18.0 °F 92% 30.09 in - WSW 4.6 mph - N/A   Unknown